[[{"header":{"parameterUnit":"m.s-1","parameterCategory":1,"la1":30.2991,"la2":30.254,"lo1":-89.0895,"lo2":-89.0444,"dy":0.0017,"dx":0.0017,"nx":28,"ny":28,"refTime":"2025-12-06T03:00:00:Z","depth":0,"parameterNumber":2,"parameterNumberName":"U-component_of_WINDS"},"data":[0,0,0,0,0,0,0,0,0,0,0,0,0,0,0,0,0,0,0,0,0,0,0,0,0,0,0,0,0,0,0,0,0,0,0,0,0,0,0,0,0,0,0,0,0,0,0,0,0,0,0,0,0,0,0,0,0,0,-1.7037,-1.7038,0,-1.7064,-1.7064,-1.7064,-1.7018,-1.7017,-1.7015,-1.7014,-1.7041,-1.7043,-1.7045,0,0,0,0,0,0,0,0,0,0,0,0,0,-1.6947,-1.6949,-1.7037,-1.7038,-1.7038,-1.7064,-1.7064,-1.7064,-1.7018,-1.7017,-1.7015,-1.7013,-1.704,-1.7043,-1.7045,0,0,0,0,0,0,0,0,0,0,0,0,0,-1.6981,-1.695,-1.7037,-1.7018,-1.7017,-1.7063,-1.7064,-1.7064,-1.7019,-1.7017,-1.7014,-1.7012,-1.7039,-1.7043,-1.7046,-1.7112,0,0,-1.7056,-1.7057,0,0,0,0,0,0,0,0,-1.698,-1.6985,-1.7021,-1.702,-1.7018,-1.7035,-1.7042,-1.708,-1.7019,-1.7018,-1.7014,-1.7011,-1.7041,-1.7044,-1.7054,-1.7114,-1.7115,-1.7056,-1.7058,-1.7059,-1.706,0,0,0,0,0,0,0,-1.6977,-1.6983,-1.7048,-1.7021,-1.702,-1.7008,-1.7011,-1.7049,-1.7042,-1.7018,-1.7015,-1.7018,-1.704,-1.7051,-1.7054,-1.7115,-1.7056,-1.7059,-1.7061,-1.7062,-1.723,-1.7233,0,0,0,0,0,0,-1.6977,-1.6982,-1.7047,-1.7048,-1.6993,-1.7012,-1.7014,-1.7032,-1.7042,-1.7041,-1.702,-1.7016,-1.7047,-1.7051,-1.7055,-1.7134,-1.7059,-1.7062,-1.7064,-1.7228,-1.7231,-1.7234,0,0,0,0,0,0,-1.6976,-1.6984,-1.7046,-1.7014,-1.7021,-1.7016,-1.7036,-1.7034,-1.7045,-1.7043,-1.7042,-1.7033,-1.7045,-1.705,-1.7098,-1.7134,-1.7064,-1.7067,-1.7225,-1.7229,-1.7232,-1.7291,0,0,0,0,0,0,-1.6973,-1.6983,-1.7009,-1.7015,-1.7023,-1.7089,-1.7038,-1.7036,-1.7051,-1.7045,-1.7055,-1.7054,-1.7043,-1.7094,-1.7102,-1.7137,-1.7069,-1.7222,-1.7227,-1.7231,-1.7286,-1.7297,-1.7306,0,0,0,0,0,-1.697,-1.7024,-1.701,-1.7018,-1.7055,-1.7091,-1.7096,-1.7082,-1.7054,-1.7079,-1.7078,-1.7054,-1.7129,-1.7099,-1.7107,-1.7145,-1.7219,-1.7225,-1.7231,-1.7282,-1.7295,-1.7305,0,0,0,0,0,0,-1.7022,-1.7025,-1.7009,-1.7067,-1.7079,-1.7083,-1.7115,-1.7096,-1.7116,-1.7111,-1.7093,-1.7095,-1.7147,-1.715,-1.7117,-1.7209,-1.7169,-1.7177,-1.7205,-1.7217,-1.7227,-1.7225,-1.7072,0,0,0,0,0,-1.7041,-1.707,-1.707,-1.7122,-1.7128,-1.7121,-1.7136,-1.7124,-1.7136,-1.7141,-1.7144,-1.7156,-1.7182,-1.72,-1.7224,-1.7286,-1.7288,-1.7316,-1.7325,-1.7333,-1.734,-1.7374,-1.7386,-1.7252,-1.7252,-1.7252,0,0,-1.7079,-1.7084,-1.7103,-1.7132,-1.714,-1.7171,-1.7125,-1.716,-1.7182,-1.7146,-1.7192,-1.7194,-1.7207,-1.7262,-1.7287,-1.7267,-1.7378,-1.7341,-1.7347,-1.735,-1.7381,-1.7393,-1.7405,-1.7256,-1.7255,-1.7255,0,0,-1.7164,-1.7171,-1.7214,-1.7223,-1.7235,-1.723,-1.724,-1.7247,-1.7247,-1.7292,-1.7265,-1.7292,-1.7337,-1.7347,-1.7358,-1.7447,-1.7425,-1.7455,-1.7506,-1.7538,-1.7549,-1.7558,-1.759,-1.7601,-1.7462,-1.7462,-1.7462,0,-1.721,-1.7255,-1.7239,-1.7275,-1.7288,-1.7256,-1.73,-1.7309,-1.7329,-1.7339,-1.7316,-1.7372,-1.7379,-1.7436,-1.7457,-1.7467,-1.7478,-1.7454,-1.7549,-1.7558,-1.7566,-1.7596,-1.7608,-1.7465,-1.7465,-1.7465,-1.7464,0,-1.7311,-1.7343,-1.7376,-1.7396,-1.7413,-1.7453,-1.7442,-1.7461,-1.7448,-1.7445,-1.7491,-1.7497,-1.7521,-1.7534,-1.7521,-1.7589,-1.7577,-1.7552,-1.7511,-1.7583,-1.7611,-1.7622,-1.747,-1.7469,-1.7468,-1.7467,0,0,-1.7431,-1.7441,-1.7453,-1.7462,-1.7473,-1.7497,-1.7535,-1.7559,-1.7575,-1.759,-1.7621,-1.766,-1.7637,-1.7649,-1.7637,-1.7666,-1.7735,-1.7637,-1.7637,-1.7655,-1.7811,-1.783,-1.7843,-1.7721,-1.7723,-1.7725,-1.781,0,-1.7516,-1.7582,-1.7568,-1.7632,-1.7661,-1.7631,-1.7664,-1.7674,-1.7672,-1.7696,-1.7694,-1.7722,-1.7688,-1.7696,-1.7723,-1.7721,-1.7766,-1.7715,-1.775,-1.7752,-1.7749,-1.7858,-1.7879,-1.7959,-1.782,-1.7822,-1.7824,0,-1.7625,-1.7643,-1.771,-1.7716,-1.7728,-1.7758,-1.7778,-1.7802,-1.7812,-1.7809,-1.7822,-1.7805,-1.7842,-1.7801,-1.7852,-1.7817,-1.7831,-1.7832,-1.7835,-1.7838,-1.7793,-1.7865,-1.7984,-1.7996,-1.7841,-1.7839,-1.7838,0,-1.7706,-1.7747,-1.7793,-1.7801,-1.7809,-1.7831,-1.7835,-1.7843,-1.7858,-1.7876,-1.7885,-1.7907,-1.792,-1.7937,-1.7925,-1.7896,-1.7979,-1.7936,-1.7977,-1.7977,-1.7996,-1.7995,-1.812,-1.8004,-1.8004,-1.8004,-1.8004,0,-1.7803,-1.7845,-1.7829,-1.7858,-1.7904,-1.7887,-1.7934,-1.7934,-1.7942,-1.797,-1.7944,-1.7971,-1.7954,-1.7979,-1.797,-1.8014,-1.802,-1.8018,-1.8015,-1.802,-1.8021,-1.8029,-1.8024,-1.8007,-1.8006,-1.8006,-1.8005,0,-1.7902,-1.7893,-1.794,-1.7944,-1.7945,-1.798,-1.7982,-1.8009,-1.8004,-1.8039,-1.8047,-1.804,-1.8068,-1.8058,-1.8088,-1.8082,-1.8138,-1.8128,-1.8134,-1.8132,-1.8173,-1.817,-1.8308,-1.8326,-1.8198,-1.8199,-1.8201,0,-1.7964,-1.7996,-1.8003,-1.8019,-1.8026,-1.8053,-1.8068,-1.8052,-1.8068,-1.8083,-1.8107,-1.8133,-1.8153,-1.8199,-1.8197,-1.8219,-1.821,-1.8257,-1.8213,-1.8217,-1.8211,-1.8209,-1.8212,-1.8266,-1.8267,-1.8268,-1.8269,0,-1.8077,-1.8071,-1.8093,-1.8114,-1.8133,-1.8149,-1.8162,-1.8177,-1.8162,-1.8182,-1.821,-1.8226,-1.8256,-1.8282,-1.8302,-1.8306,-1.8286,-1.8283,-1.8293,-1.83,-1.8302,-1.8302,-1.8159,-1.828,-1.8279,-1.8278,-1.8278,-1.8277,-1.816,-1.8187,-1.8195,-1.8221,-1.823,-1.8243,-1.8267,-1.8266,-1.8289,-1.8312,-1.8301,-1.8334,-1.8343,-1.8368,-1.8375,-1.84,-1.8382,-1.8398,-1.8402,-1.8406,-1.8411,-1.8298,-1.8404,-1.8404,-1.8403,-1.8403,-1.8403,0,-1.8271,-1.8275,-1.8299,-1.8319,-1.8339,-1.8317,-1.833,-1.8349,-1.8378,-1.8388,-1.8408,-1.844,-1.8465,-1.8464,-1.8487,-1.8508,-1.8499,-1.8514,-1.8513,-1.8514,-1.8426,-1.8415,-1.8521,-1.8521,-1.8521,-1.8521,-1.8521,-1.8521,-1.8332,-1.8376,-1.8371,-1.8419,-1.8422,-1.8454,-1.8464,-1.8475,-1.8483,-1.8521,-1.8541,-1.854,-1.8546,-1.8569,-1.8591,-1.859,-1.8599,-1.8619,-1.8614,-1.8532,-1.8521,-1.8509,-1.8499,-1.8621,-1.8621,-1.87,-1.8701,-1.8702]},{"header":{"parameterUnit":"m.s-1","parameterCategory":1,"la1":30.2991,"la2":30.254,"lo1":-89.0895,"lo2":-89.0444,"dy":0.0017,"dx":0.0017,"nx":28,"ny":28,"refTime":"2025-12-06T03:00:00:Z","depth":0,"parameterNumber":3,"parameterNumberName":"V-component_of_WINDS"},"data":[0,0,0,0,0,0,0,0,0,0,0,0,0,0,0,0,0,0,0,0,0,0,0,0,0,0,0,0,0,0,0,0,0,0,0,0,0,0,0,0,0,0,0,0,0,0,0,0,0,0,0,0,0,0,0,0,0,0,-2.4349,-2.4349,0,-2.4398,-2.4398,-2.4399,-2.4392,-2.4391,-2.439,-2.4389,-2.4436,-2.4438,-2.444,0,0,0,0,0,0,0,0,0,0,0,0,0,-2.4244,-2.4246,-2.4348,-2.4349,-2.435,-2.4398,-2.4398,-2.4399,-2.4392,-2.4391,-2.439,-2.4389,-2.4436,-2.4438,-2.444,0,0,0,0,0,0,0,0,0,0,0,0,0,-2.4291,-2.4247,-2.4348,-2.4352,-2.4353,-2.4398,-2.4398,-2.4399,-2.4392,-2.4391,-2.439,-2.4388,-2.4435,-2.4438,-2.4441,-2.4484,0,0,-2.445,-2.4451,0,0,0,0,0,0,0,0,-2.4288,-2.4295,-2.4351,-2.4352,-2.4353,-2.4387,-2.4379,-2.4428,-2.4392,-2.4377,-2.4389,-2.4388,-2.4421,-2.4425,-2.4437,-2.4486,-2.4488,-2.445,-2.4452,-2.4453,-2.4454,0,0,0,0,0,0,0,-2.4285,-2.4293,-2.4368,-2.4352,-2.4353,-2.435,-2.4355,-2.4388,-2.4405,-2.4378,-2.4378,-2.4384,-2.4421,-2.4434,-2.4438,-2.4489,-2.445,-2.4453,-2.4455,-2.4456,-2.4575,-2.4576,0,0,0,0,0,0,-2.4281,-2.429,-2.4366,-2.4369,-2.4317,-2.4353,-2.4359,-2.4377,-2.4405,-2.4408,-2.4385,-2.4383,-2.4429,-2.4434,-2.4439,-2.4491,-2.4453,-2.4456,-2.4458,-2.4574,-2.4575,-2.4577,0,0,0,0,0,0,-2.4279,-2.4288,-2.4364,-2.433,-2.4339,-2.4356,-2.4377,-2.4379,-2.4392,-2.441,-2.4412,-2.4395,-2.4428,-2.4435,-2.4473,-2.4493,-2.4458,-2.446,-2.4572,-2.4574,-2.4576,-2.4595,0,0,0,0,0,0,-2.4276,-2.4288,-2.4305,-2.433,-2.4341,-2.4398,-2.4378,-2.4381,-2.4398,-2.4396,-2.442,-2.4423,-2.4428,-2.4468,-2.4476,-2.4496,-2.4463,-2.457,-2.4573,-2.4575,-2.4593,-2.4598,-2.4602,0,0,0,0,0,-2.4273,-2.4308,-2.4306,-2.4315,-2.4364,-2.44,-2.4406,-2.4412,-2.4399,-2.4416,-2.4428,-2.4422,-2.4489,-2.4472,-2.4481,-2.4502,-2.4569,-2.4572,-2.4575,-2.4591,-2.4597,-2.4602,0,0,0,0,0,0,-2.4284,-2.4311,-2.431,-2.4355,-2.4375,-2.4398,-2.442,-2.4418,-2.4441,-2.4439,-2.4444,-2.445,-2.4488,-2.4499,-2.4479,-2.4545,-2.4527,-2.4532,-2.4536,-2.4542,-2.4546,-2.4543,-2.4465,0,0,0,0,0,-2.4292,-2.432,-2.4342,-2.438,-2.439,-2.4403,-2.4419,-2.4422,-2.4443,-2.4451,-2.4465,-2.4485,-2.451,-2.4527,-2.4551,-2.4594,-2.4599,-2.4613,-2.4617,-2.4621,-2.4625,-2.4647,-2.4654,-2.4587,-2.4587,-2.4586,0,0,-2.4308,-2.4327,-2.4344,-2.4382,-2.4398,-2.4426,-2.4411,-2.4441,-2.4461,-2.4455,-2.4492,-2.4503,-2.4525,-2.4565,-2.4584,-2.4576,-2.4645,-2.4625,-2.4628,-2.463,-2.4651,-2.4658,-2.4663,-2.4589,-2.4588,-2.4588,0,0,-2.4352,-2.437,-2.4402,-2.4419,-2.4444,-2.4452,-2.446,-2.4484,-2.4491,-2.4528,-2.4525,-2.4548,-2.4592,-2.4607,-2.4621,-2.467,-2.4665,-2.4678,-2.4701,-2.4722,-2.4728,-2.4732,-2.4749,-2.4755,-2.4682,-2.4682,-2.4682,0,-2.4369,-2.4412,-2.4419,-2.445,-2.4466,-2.4463,-2.4496,-2.4511,-2.4542,-2.4553,-2.4543,-2.4598,-2.4612,-2.4656,-2.4668,-2.4679,-2.4687,-2.4675,-2.4727,-2.4731,-2.4736,-2.4752,-2.4758,-2.4683,-2.4683,-2.4683,-2.4683,0,-2.4431,-2.4461,-2.4484,-2.4515,-2.4534,-2.4565,-2.4576,-2.4594,-2.4595,-2.4604,-2.4641,-2.4658,-2.4686,-2.4696,-2.4698,-2.474,-2.4734,-2.4726,-2.4708,-2.4743,-2.4758,-2.4765,-2.4685,-2.4684,-2.4684,-2.4684,0,0,-2.4483,-2.4518,-2.4527,-2.454,-2.4567,-2.459,-2.462,-2.4648,-2.4663,-2.4684,-2.4709,-2.4746,-2.4738,-2.4753,-2.4756,-2.4776,-2.4812,-2.4765,-2.4765,-2.4772,-2.4858,-2.4864,-2.4871,-2.4809,-2.481,-2.4811,-2.4856,0,-2.4529,-2.4585,-2.4592,-2.464,-2.4667,-2.4665,-2.4691,-2.4709,-2.4719,-2.4741,-2.4751,-2.4777,-2.4765,-2.4774,-2.4793,-2.4804,-2.4829,-2.48,-2.4831,-2.4832,-2.4825,-2.4879,-2.4886,-2.4927,-2.4862,-2.4863,-2.4864,0,-2.4591,-2.4615,-2.4666,-2.4689,-2.47,-2.4724,-2.475,-2.4772,-2.4792,-2.4797,-2.4815,-2.4815,-2.4844,-2.4826,-2.4867,-2.4847,-2.486,-2.4866,-2.4868,-2.4871,-2.485,-2.4882,-2.4941,-2.4947,-2.4873,-2.4873,-2.4872,0,-2.4623,-2.4668,-2.4704,-2.4716,-2.4744,-2.476,-2.4772,-2.4792,-2.4808,-2.483,-2.484,-2.4864,-2.4878,-2.4896,-2.4902,-2.4889,-2.4942,-2.4924,-2.4946,-2.4946,-2.4957,-2.4956,-2.5018,-2.4967,-2.4966,-2.4966,-2.4966,0,-2.4673,-2.4704,-2.4719,-2.4742,-2.4776,-2.4783,-2.4817,-2.4828,-2.4845,-2.4868,-2.4867,-2.4889,-2.4896,-2.4918,-2.4923,-2.4955,-2.4961,-2.4965,-2.4966,-2.4965,-2.4965,-2.4973,-2.497,-2.4968,-2.4968,-2.4967,-2.4967,0,-2.4715,-2.4726,-2.4766,-2.4789,-2.4795,-2.4819,-2.4838,-2.4859,-2.4868,-2.4897,-2.4904,-2.4918,-2.4944,-2.4952,-2.4983,-2.4986,-2.5024,-2.5022,-2.5017,-2.5017,-2.5038,-2.5036,-2.5107,-2.5116,-2.5059,-2.506,-2.506,0,-2.4746,-2.477,-2.4796,-2.4812,-2.4825,-2.4851,-2.4867,-2.4875,-2.4892,-2.4916,-2.4934,-2.496,-2.4982,-2.5023,-2.5035,-2.5058,-2.5057,-2.508,-2.506,-2.5058,-2.5056,-2.5055,-2.5057,-2.5084,-2.5084,-2.5085,-2.5085,0,-2.48,-2.4804,-2.4829,-2.4855,-2.4875,-2.4896,-2.4916,-2.4929,-2.4939,-2.4957,-2.4985,-2.5001,-2.5034,-2.5059,-2.5083,-2.5094,-2.5091,-2.5091,-2.5097,-2.5096,-2.5092,-2.5094,-2.5027,-2.509,-2.5089,-2.5089,-2.5089,-2.5088,-2.4837,-2.4858,-2.4879,-2.4906,-2.4922,-2.4941,-2.4961,-2.4973,-2.4996,-2.5024,-2.5026,-2.5055,-2.5074,-2.5106,-2.5118,-2.514,-2.5133,-2.5142,-2.5144,-2.5146,-2.5148,-2.5089,-2.5144,-2.5144,-2.5144,-2.5144,-2.5144,0,-2.489,-2.4903,-2.4928,-2.4957,-2.4977,-2.4974,-2.4996,-2.5013,-2.5039,-2.5057,-2.5079,-2.5109,-2.5134,-2.5147,-2.5172,-2.5186,-2.5185,-2.5192,-2.5191,-2.5193,-2.5153,-2.5145,-2.5193,-2.5193,-2.5193,-2.5193,-2.5193,-2.5193,-2.492,-2.4955,-2.4962,-2.5004,-2.5017,-2.5047,-2.5059,-2.5076,-2.509,-2.5125,-2.5146,-2.5155,-2.5171,-2.5196,-2.5218,-2.5221,-2.523,-2.5237,-2.524,-2.5201,-2.5196,-2.5191,-2.5184,-2.5239,-2.5239,-2.5278,-2.5279,-2.5279]}]]